Regional Weather Roundup
Issued by NWS Grand Forks, ND

Home | Current Version | Previous Version | Text Only | Print | Product List | Glossary Off
Versions: 1 2 3 4 5 6 7 8 9 10 11 12 13 14 15 16 17 18 19 20 21 22 23 24 25 26 27 28 29 30 31 32 33 34 35 36 37 38 39 40 41 42 43 44 45 46 47 48 49 50

000
ASUS43 KFGF 021410
RWRFGF
PRAIRIE TO PINES  WEATHER ROUNDUP
NATIONAL WEATHER SERVICE EASTERN NORTH DAKOTA/GRAND FORKS ND
800 AM CST MON MAR 02 2015

 **SATELLITE DATA USED TO AUGMENT SKY COVER AT AUTOMATED STATIONS**
 *****  WEATHER ACROSS EASTERN NORTH DAKOTA  *****

CITY           SKY/WX    TMP DP  RH WIND       PRES   REMARKS
GRAND FORKS    PTCLDY    -1  -5  82 SE7       30.30S WCI -14
GRAND FRKS AFB PTCLDY     4  -2  77 S7        30.29S WCI  -9
GRAND FRKS NWS   N/A      1 N/A N/A S5          N/A  WCI  -8
DEVILS LAKE    PTCLDY     7   3  85 SW12      30.20F WCI  -9
FARGO          FAIR       6   1  80 S5        30.36F WCI  -3
WAHPETON ARPT  MOSUNNY    5   0  78 SE7       30.39R WCI  -7
$$

 ***** WEATHER ACROSS CENTRAL AND WESTERN NORTH DAKOTA  *****

CITY           SKY/WX    TMP DP  RH WIND       PRES   REMARKS
BISMARCK       CLEAR     12   8  84 S14       30.18F WCI  -3
MINOT          PTCLDY    12   6  77 S14       30.08F WCI  -3
JAMESTOWN      MOCLDY     3  -2  79 S9        30.26S WCI -12
MINOT AFB      PTCLDY     8   5  86 S12       30.08F WCI  -7
GARRISON         N/A      8   5  87 S10       30.09F WCI  -6
WILLISTON      PTCLDY    14   6  70 S8        29.97F WCI   3
DICKINSON      CLEAR     13   6  74 S17G25    29.97F WCI  -4
HETTINGER      CLEAR     13   7  77 SE14      30.01F WCI  -2
$$

 *****  OTHER AIRPORT OBSERVATIONS IN OUR AREA  *****

CITY           SKY/WX    TMP DP  RH WIND       PRES   REMARKS
WALHALLA         N/A      1   0  92 S5        30.24F WCI  -8
GRAFTON AIRPOR NOT AVBL
VALLEY CITY AR   N/A     -2  -4  92 S8        30.29R WCI -17
CANDO          FAIR      -2  -6  84 S6        30.18F WCI -14
CAVALIER APRT  FAIR       0  -2  92 S8        30.25F WCI -15
GWINNER        SUNNY      7   3  85 SW12      30.35S WCI  -9
SHEYENNE NWR     N/A      5   0  79 SW7       29.95  WCI  -7
ROLLA          FAIR       1   0  92 SW12      30.12F WCI -15
 ***** THE ABOVE OBSERVATIONS ARE NON NWS ARE NOT QUALITY
       CONTROLLED AND MAY MIS-REPORT RAIN FOR SNOW...
$$

  *****  WEATHER ACROSS NORTHERN MINNESOTA  *****

CITY           SKY/WX    TMP DP  RH WIND       PRES   REMARKS
FLAG ISLAND    PTCLDY    -8 -11  84 SE5       30.27F WCI -19
WARROAD        PTCLDY    -2  -8  78 CALM      30.27F
ROSEAU         PTCLDY    -6 -11  77 S5        30.28F WCI -17
HALLOCK        NOT AVBL
THF RVR FALLS  MOCLDY    -2  -6  84 S7        30.30R WCI -16
BAUDETTE       MOCLDY    -8 -12  83 CALM      30.28F
WASKISH        PTCLDY    -2  -8  78 CALM      30.30F
CROOKSTON      MOCLDY     0  -4  85 S10       30.34S WCI -17
STEPHEN NDAWN    N/A     -6  -9  84 SE5         N/A  WCI -17
GREENBUSH NDAW   N/A     -4  -8  84 MISG        N/A
$$
  *****  WEATHER ACROSS CENTRAL AND WEST MINNESOTA  *****

CITY           SKY/WX    TMP DP  RH WIND       PRES   REMARKS
FOSSTON        PTCLDY    -4  -8  84 S5        30.32R WCI -15
BEMIDJI        PTCLDY    -6  -9  84 CALM      30.30S
PARK RAPIDS    CLEAR      0  -4  83 S6        30.32S WCI -12
ELBOW LAKE     FAIR       4   0  83 SE7       30.38R WCI  -8
WADENA         MOCLDY    -2  -6  84 CALM      30.35F
DETROIT LAKES  MOCLDY     1   0  92 S5        30.34S WCI  -8
MOORHEAD       PTCLDY     3   1  92 SE7       30.36F WCI  -9
FERGUS FALLS   MOCLDY     3  -2  78 SE7       30.42S WCI  -9
MORRIS MN      PTCLDY     5   0  78 SE6       30.40R WCI  -6
STAPLES        PTCLDY    -2  -6  84 CALM      30.37R
$$
  *****  WEATHER ELSEWHERE ACROSS MINNESOTA  *****

CITY           SKY/WX    TMP DP  RH WIND       PRES   REMARKS
DULUTH         MOSUNNY    5   0  79 W9        30.34R WCI  -9
INTRNTL FALLS  PTCLDY    -3  -6  87 SW5       30.31F WCI -13
ELY            MOSUNNY    1  -2  85 W1        30.31S
CLOQUET        MOSUNNY    7   1  78 W6        30.36R WCI  -3
WHEATON        NOT AVBL
BRAINERD       MOSUNNY   -3  -6  87 SW3       30.38R
HIBBING        PTSUNNY   -6 -11  79 CALM      30.33S
ALEXANDRIA     MOCLDY     4   1  88 S5        30.38S WCI  -5
SAINT CLOUD    PTSUNNY    6   3  87 SW3       30.43S
MINNEAPOLIS    MOSUNNY   11   7  84 SW3       30.47S
$$

  *****  WEATHER ACROSS SOUTH DAKOTA  *****

CITY           SKY/WX    TMP DP  RH WIND       PRES   REMARKS
SIOUX FALLS    MOCLDY    10   6  84 CALM      30.42R
BROOKINGS      NOT AVBL
WATERTOWN      PTCLDY     3  -1  83 S9        30.35S WCI -12
HURON          PTCLDY     8   6  92 SE8       30.36F WCI  -4
SISSETON         N/A      8   2  76 SW6       30.37S WCI  -2
ABERDEEN       MOCLDY     7   1  76 S7        30.34F HAZE    WCI  -5
MITCHELL       PTCLDY    15  11  83 SE13      30.39F WCI   1
PIERRE         PTCLDY    15  11  83 SE12      30.22F WCI   2
MOBRIDGE       CLEAR     13   9  84 SE17      30.16F WCI  -4
RAPID CITY     PTCLDY    17   9  70 S12       29.97F WCI   4
$$

  *****  SOME WEATHER IN NEARBY STATES *****

CITY           SKY/WX    TMP DP  RH WIND       PRES   REMARKS
GLASGOW MT     PTCLDY    16   8  71 SE15      29.82F WCI   1
GREAT FALLS MT CLOUDY    27  10  49 W10       29.81R WCI  17
CHEYENNE WY    CLOUDY    20  18  92 S9        29.94F FOG     WCI   9
SCOTTSBLUFF NE CLOUDY    29  20  69 SE13      30.03F WCI  19
OMAHA NE       PTSUNNY   22  16  78 CALM      30.47S
DES MOINES IA  CLOUDY    20  15  81 CALM      30.52S
DAVENPORT IA   SUNNY      7   3  84 NW6       30.53R WCI  -3
CHICAGO IL     MOSUNNY   16   9  74 W7        30.48R WCI   6
EAU CLAIRE WI  MOSUNNY    5   2  87 SW5       30.46R WCI  -4
LA CROSSE WI   MOSUNNY   11   7  84 CALM      30.51R
$$

  *****  SOME NATIONAL WEATHER *****

CITY           SKY/WX    TMP DP  RH WIND       PRES   REMARKS
LA GUARDIA NY  CLOUDY    34  26  72 NW13      30.11R WCI  25
RALEIGH NC     FOG       39  37  92 W6        30.23R VSB 1/8
ATLANTA GA     CLOUDY    48  46  93 W7        30.32R FOG
NEW ORLEANS LA CLOUDY    64  61  90 SE8       30.26S FOG
OKLAHOMA CITY  CLOUDY    29  21  72 NE9       30.40F WCI  20
ALBUQUERQUE NM CLOUDY    36  29  75 N13       30.05F
SALT LAKE CITY CLOUDY    39  31  72 S6        29.79F
LOS ANGELES CA PTCLDY    48  47  96 CALM      29.91R
BOISE ID       CLEAR     27  20  75 E3        29.84F
SEATTLE WA     CLOUDY    43  36  75 N14       30.00R
$$

*** WEATHER ACROSS MANITOBA...SASKATCHEWAN AND ONTARIO ***
                ***ONTARIO***

CITY           SKY/WX    TMP DP  RH WIND       PRES   REMARKS
GERALDTON      SUNNY      1  -8  66 W6        30.23R WCI -10
THUNDER BAY    SUNNY      5  -2  72 NW9       30.35R WCI  -9
SIOUX LOOKOUT  CLEAR     -4  -8  84 SW6       30.25R WCI -16
TORONTO        PTSUNNY   23  14  68 W24       30.22R WCI   7
BIG TROUT LK   CLEAR    -13 -18  77 SW7       30.06F WCI -29
PICKLE LAKE    SUNNY     -4 -13  65 W12       30.16R WCI -22
DRYDEN         CLEAR      0  -4  85 SW8       30.24R WCI -15
KENORA         CLEAR     -2  -6  84 S7        30.24F WCI -16
$$
                *** MANITOBA***

CITY           SKY/WX    TMP DP  RH WIND       PRES   REMARKS
BRANDON        CLOUDY   -11 -17  77 VRB2      30.11F
DAUPHIN        CLEAR     14   5  67 SW16G22   30.02F WCI  -2
ISLAND LAKE    MOCLDY    -8 -13  77 S6        30.04F WCI -21
PILOT MOUND      N/A     -8 -11  84 S7          N/A  WCI -22
THE PAS        MOCLDY     9   3  78 S13       29.84F WCI  -7
THOMPSON       MOCLDY     0  -6  78 S7        29.82F WCI -13
WINNIPEG       CRYSTALS  -2  -6  84 S13       30.24F WCI -21
LYNN LAKE      FLURRIES   7   3  85 SW7       29.63F WCI  -5
CHURCHILL      CRYSTALS -20 -26  76 S7        29.88F WCI -37
GILLAM         CLOUDY    -2 -11  65 S9        29.88F WCI -18
$$
                ***SASKATCHEWAN***

CITY           SKY/WX    TMP DP  RH WIND       PRES   REMARKS
ESTEVAN        MOCLDY     5   1  85 S9        29.95F WCI  -9
KINDERSLEY     MOCLDY    10   7  85 NW6       29.72R WCI   1
LLOYDMINSTER   LGT SNOW  18  16  93 N17G32    29.77R DRFTSNOWWCI   2
PRINCE ALBERT  CLOUDY     0  -4  85 NE2       29.74F
REGINA         MOCLDY     1  -2  85 SE15      29.82F WCI -18
YORKTON        CLEAR      3   1  92 S10       29.90F WCI -12
N. BATTLEFORD  LGT SNOW  10   9  92 NW8       29.74S WCI  -1
LA RONGE       FLURRIES  14  10  85 SW5       29.70S WCI   6
SASKATOON      MOCLDY     9   3  78 S15       29.73F WCI  -8
SWIFT CURRENT  CLEAR     14   9  79 SW18      29.69S WCI  -3
$$
NOTE: THESE ARE AUTOMATED STATIONS WITH LIMITED QUALITY CONTROL
      "FAIR" INDICATES FEW OR NO CLOUDS BELOW 12,000 FEET WITH NO
      SIGNIFICANT WEATHER AND/OR OBSTRUCTIONS TO VISIBILITY.
      SKY/WX - SKY CONDITION AND SIGNIFICANT WEATHER.
      TMP - AIR TEMPERATURE.    DP   - DEWPOINT TEMPERATURE.
      RH  - RELATIVE HUMIDITY.  PRES - PRESSURE.
      HX  - HEAT INDEX.         WCI  - WIND CHILL INDEX.
$



USA.gov is the U.S. government's official web portal to all federal, state and local government web resources and services.